Annapolis Naval Academy, MD

6:22 PM EDT on June 23, 2017 (GMT -0400)
Annapolis Naval Academy

Weather History for KNAK - January, 2013

Change the Weather History Date:

Saturday, January 26, 2013

  Actual Average (KBWI) Record (KBWI)
Temperature  
Mean Temperature 28 °F -  
Max Temperature 33 °F 43 °F 79 °F (1950)
Min Temperature 23 °F 25 °F 2 °F (1961)
Degree Days  
Heating Degree Days 37    
Moisture  
Dew Point 19 °F    
Average Humidity 70    
Maximum Humidity 85    
Minimum Humidity 54    
Precipitation  
Precipitation 0.00 in - - ()
Sea Level Pressure  
Sea Level Pressure 30.25 in    
Wind  
Wind Speed 5 mph (NW)    
Max Wind Speed 14 mph    
Max Gust Speed -    
Visibility 9 miles    
Events      
Averages and records for this station are not official NWS values.
T = Trace of Precipitation, MM = Missing Value Source: NWS Daily Summary

Daily Weather History Graph

Daily Weather History Graph

Search for Another Location

Airport or City:

Trip Planner

Search our weather history database for the weather conditions in past years. The results will help you decide how hot, cold, wet, or windy it might be!

Date:

Astronomy

Jan. 26, 2013 Rise Set
Actual Time 7:17 AM EST 5:20 PM EST
Civil Twilight 6:48 AM EST 5:49 PM EST
Nautical Twilight 6:16 AM EST 6:21 PM EST
Astronomical Twilight 5:44 AM EST 6:52 PM EST
Moon 5:12 PM EST (1/26) 6:33 AM EST (1/26)
Length of Visible Light 11h 00m
Length of Day
10h 03m
Full, 100% of the Moon is Illuminated
Jan 26
Full
Jan 26
Full
Feb 3
Last Quarter
Feb 10
New
Feb 17
First Quarter

Hourly Weather History & Observations

Time (EST) Temp. Windchill Dew Point Humidity Pressure Visibility Wind Dir Wind Speed Gust Speed Precip Events Conditions
12:54 AM 23.0 °F 15.8 °F 19.0 °F 85% 30.11 in 9.0 mi WNW 5.8 mph - N/A   Overcast
1:54 AM 23.0 °F 18.4 °F 19.0 °F 85% 30.10 in 10.0 mi WNW 3.5 mph - N/A   Overcast
2:54 AM 24.1 °F 18.2 °F 19.0 °F 81% 30.12 in 10.0 mi WNW 4.6 mph - N/A   Overcast
3:54 AM 25.0 °F 18.1 °F 19.0 °F 78% 30.13 in 10.0 mi WNW 5.8 mph - N/A   Overcast
4:54 AM 24.1 °F 18.2 °F 19.0 °F 81% 30.15 in 10.0 mi WNW 4.6 mph - N/A   Overcast
5:54 AM 25.0 °F 18.1 °F 19.0 °F 78% 30.17 in 10.0 mi NW 5.8 mph - N/A   Overcast
6:54 AM 26.1 °F 18.4 °F 19.0 °F 75% 30.20 in 10.0 mi North 6.9 mph - N/A   Overcast
7:54 AM 26.1 °F 19.4 °F 18.0 °F 71% 30.22 in 10.0 mi NNW 5.8 mph - N/A   Overcast
8:54 AM 26.1 °F 19.4 °F 18.0 °F 71% 30.23 in 10.0 mi NNW 5.8 mph - N/A   Overcast
9:54 AM 27.0 °F 21.6 °F 17.1 °F 66% 30.25 in 10.0 mi NW 4.6 mph - N/A   Overcast
10:54 AM 28.0 °F 20.0 °F 18.0 °F 66% 30.27 in 10.0 mi NW 8.1 mph - N/A   Clear
11:54 AM 28.9 °F 21.9 °F 19.0 °F 67% 30.26 in 10.0 mi NNW 6.9 mph - N/A   Partly Cloudy
12:54 PM 32.0 °F 24.8 °F 18.0 °F 56% 30.23 in 10.0 mi West 8.1 mph - N/A   Mostly Cloudy
1:54 PM 33.1 °F 25.5 °F 18.0 °F 54% 30.22 in 10.0 mi NW 9.2 mph - N/A   Overcast
2:54 PM 33.1 °F 23.4 °F 18.0 °F 54% 30.24 in 10.0 mi NW 13.8 mph - N/A   Overcast
3:54 PM 33.1 °F 24.9 °F 19.0 °F 56% 30.25 in 10.0 mi NNW 10.4 mph - N/A   Mostly Cloudy
4:54 PM 33.1 °F 26.1 °F 19.0 °F 56% 30.28 in 10.0 mi NNW 8.1 mph - N/A   Overcast
5:54 PM 32.0 °F 26.4 °F 19.0 °F 59% 30.31 in 10.0 mi North 5.8 mph - N/A   Partly Cloudy
6:54 PM 30.0 °F - 19.9 °F 66% 30.34 in 9.0 mi Calm Calm - N/A   Clear
7:54 PM 28.0 °F - 18.0 °F 66% 30.35 in 8.0 mi Calm Calm - N/A   Clear
8:54 PM 28.0 °F - 18.0 °F 66% 30.38 in 7.0 mi Calm Calm - N/A   Clear
9:54 PM 26.1 °F - 21.9 °F 84% 30.41 in 5.0 mi Calm Calm - N/A   Clear
10:54 PM 26.1 °F - 21.0 °F 81% 30.43 in 5.0 mi Calm Calm - N/A   Haze
11:54 PM 26.1 °F - 21.0 °F 81% 30.45 in 5.0 mi Calm Calm - N/A   Haze